Regional Weather Roundup
Issued by NWS

Home | Current Version | Previous Version | Graphics & Text | Print | Product List | Glossary On
Versions: 1 2 3 4 5 6 7 8 9 10 11 12 13 14 15 16 17 18 19 20 21 22 23 24 25 26 27 28
000
ASUS45 KCYS 291110
RWRWY

WYOMING REGIONAL WEATHER ROUNDUP
NATIONAL WEATHER SERVICE CHEYENNE WY
500 AM MDT WED OCT 29 2014

NOTE:  "FAIR" INDICATES FEW OR NO CLOUDS BELOW 12,000 FEET
WITH NO SIGNIFICANT WEATHER AND/OR OBSTRUCTIONS TO VISIBILITY.

WYZ001-291200-
YELLOWSTONE NATIONAL PARK

CITY           SKY/WX    TMP DP  RH WIND       PRES   REMARKS
LK YELLOWSTONE   N/A     21  19  92 CALM      30.25
W YELLOWSTONE  NOT AVBL

$$
WYZ002>013-054>058-071-098>099-291200-
NORTHERN WYOMING

CITY           SKY/WX    TMP DP  RH WIND       PRES   REMARKS
JACKSON        PTCLDY    19  19 100 NE3       30.25F
CODY           PTCLDY    48  18  29 SW13      30.07
GREYBULL       PTCLDY    27  14  58 SE5       30.09F WCI  22
WORLAND        PTCLDY    22  14  71 CALM      30.08F
SHERIDAN       PTCLDY    30  19  63 N5        29.99F WCI  25
BUFFALO        MOCLDY    40  17  39 SW6       30.03F
GILLETTE       CLEAR     38  15  39 S8        30.03F WCI  32
HULETT         FAIR      41  19  42 SW9       30.04
NEWCASTLE      FAIR      28  18  64 CALM      30.09F

$$
WYZ014>020-022>026-101>103-291200-
CENTRAL WYOMING

CITY           SKY/WX    TMP DP  RH WIND       PRES   REMARKS
BIG PINEY      CLEAR     19  12  74 CALM      30.28F
PINEDALE       SUNNY     18  14  86 CALM      30.28
DUBOIS         FAIR      32  14  47 NW17      30.17S WCI  21
LANDER         PTCLDY    31  13  47 S3        30.12F
RIVERTON       PTCLDY    31  14  49 SW9       30.13F WCI  23
CASPER         CLEAR     40  10  29 SW18      30.11F WCI  31
DOUGLAS        PTCLDY    21  14  74 S3        30.12F

$$
WYZ021-027>030-104>119-291200-
SOUTHERN WYOMING

CITY           SKY/WX    TMP DP  RH WIND       PRES   REMARKS
EVANSTON       CLEAR     33   7  33 S6        30.30R WCI  28
FORT BRIDGER   FAIR      36   8  30 SW10      30.31R WCI  29
ROCK SPRINGS   PTCLDY    32  10  40 W13       30.27S WCI  22
RAWLINS        PTCLDY    36   7  29 CALM      30.25S
SARATOGA       FAIR      27  12  54 S8        30.27S WCI  18
LARAMIE        CLEAR     34  10  37 SW15      30.20F WCI  24
CHEYENNE       CLEAR     39  14  36 W14       30.17F WCI  31
TORRINGTON     PTCLDY    22  17  81 CALM      30.12F
PINE BLUFFS    FAIR      27  21  80 S5        30.16F WCI  21

$$



USA.gov is the U.S. government's official web portal to all federal, state and local government web resources and services.